Stations météo

réclame
Mon MeteoGroup
Yeovilton, Grande-Bretagne (3853): Température de l'air & dewpoint: 13.01.2020 20:00:00 - 19.01.2020 20:00:00 (GMT)Yeovilton, Grande-Bretagne (3853): Température de l'air -20cm & Température de l'air -100cm: 13.01.2020 20:00:00 - 19.01.2020 20:00:00 (GMT)Yeovilton, Grande-Bretagne (3853): Vitesse du vent & gusts: 13.01.2020 20:00:00 - 19.01.2020 20:00:00 (GMT)Yeovilton, Grande-Bretagne (3853): Direction du vent: 13.01.2020 20:00:00 - 19.01.2020 20:00:00 (GMT)Yeovilton, Grande-Bretagne (3853): reduced air pressure: 13.01.2020 20:00:00 - 19.01.2020 20:00:00 (GMT)Yeovilton, Grande-Bretagne (3853): visibility: 13.01.2020 20:00:00 - 19.01.2020 20:00:00 (GMT)Yeovilton, Grande-Bretagne (3853): Ensoleillement: 13.01.2020 20:00:00 - 19.01.2020 20:00:00 (GMT)Yeovilton, Grande-Bretagne (3853): Quantités de précipitations: 13.01.2020 20:00:00 - 19.01.2020 20:00:00 (GMT)
Date & Time tt [°C] td [°C] tt -20cm [°C] tt -100cm [°C] ff [km/h] ff [knt] fx [km/h] fx [knt] dd ppp [hPa] vv [km] sd [min] rr [mm]
19.01.2020 20:00:00 -1,4 -2,2 - - 4 2 - - SSE 1049,5 8 0 -
19.01.2020 19:00:00 -0,3 -1,3 - - 8 4 - - SSE 1049,0 8 0 0,0
19.01.2020 18:00:00 2,1 1,1 - - 5 3 - - NNW 1048,4 10 0 0,0
19.01.2020 17:00:00 4,6 2,2 - - 4 2 - - W 1047,8 23 12 0,0
19.01.2020 16:00:00 6,2 1,7 - - 4 2 - - WNW 1047,7 27 60 0,0
19.01.2020 15:00:00 6,7 2,6 - - 5 3 - - WNW 1047,2 29 60 0,0
19.01.2020 14:00:00 6,2 2,0 - - 5 3 - - W 1046,6 24 60 0,0
19.01.2020 13:00:00 5,3 2,4 - - 5 3 - - W 1046,8 10 60 0,0
19.01.2020 12:00:00 3,3 1,3 - - 4 2 - - WSW 1047,0 15 60 0,0
19.01.2020 11:00:00 1,0 -0,2 - - 5 3 - - W 1047,0 10 60 0,0
19.01.2020 10:00:00 -0,6 -1,3 - - 4 2 - - SE 1046,1 10 60 0,0
19.01.2020 09:00:00 -3,1 -3,9 6,7 7,9 2 1 - - ESE 1045,3 11 12 0,0
19.01.2020 08:00:00 -4,8 -5,9 - - 0 0 - - N 1044,1 11 0 0,0
19.01.2020 07:00:00 -3,7 -4,5 - - 4 2 - - ESE 1043,0 12 0 0,0
19.01.2020 06:00:00 -3,3 -3,8 - - 2 1 - - E 1042,4 4,3 0 0,0
19.01.2020 05:00:00 -2,2 -2,5 - - 2 1 - - WSW 1041,8 6 0 0,0
19.01.2020 04:00:00 -2,9 -3,7 - - 5 3 - - ESE 1041,0 8 0 0,0
19.01.2020 03:00:00 -1,9 -2,2 - - 4 2 - - WSW 1040,6 8 0 0,0
19.01.2020 02:00:00 -2,3 -2,8 - - 2 1 - - W 1039,7 7 0 0,0
19.01.2020 01:00:00 -2,8 -3,5 - - 2 1 - - S 1038,9 8 0 0,0
19.01.2020 00:00:00 -2,3 -2,8 - - 2 1 - - S 1038,3 6 - 0,0
18.01.2020 23:00:00 -2,3 -3,0 - - 4 2 - - SE 1037,2 5 0 0,0
18.01.2020 22:00:00 -1,6 -2,3 - - 4 2 - - S 1036,3 7 0 0,0
18.01.2020 21:00:00 -0,3 -0,8 - - 2 1 - - W 1035,5 4,7 0 0,0
18.01.2020 20:00:00 0,3 -0,4 - - 0 0 - - N 1034,9 7 0 0,0
18.01.2020 19:00:00 1,5 0,8 - - 2 1 - - NNE 1033,9 8 0 0,0
18.01.2020 18:00:00 2,1 0,9 - - 5 3 - - NNW 1032,7 10 0 0,0
18.01.2020 17:00:00 3,1 1,7 - - 5 3 - - NNE 1032,0 10 0 0,0
18.01.2020 16:00:00 4,7 1,6 - - 8 4 - - NNW 1031,0 10 18 0,0
18.01.2020 15:00:00 5,9 2,0 - - 11 6 - - N 1030,4 27 36 0,0
18.01.2020 14:00:00 6,4 2,8 - - 8 4 - - NW 1030,0 10 60 0,0
18.01.2020 13:00:00 5,5 3,0 - - 5 3 - - W 1029,5 10 60 0,0
18.01.2020 12:00:00 4,1 2,4 - - 5 3 - - WNW 1029,4 10 60 0,0
18.01.2020 11:00:00 2,3 1,4 - - 2 1 - - NNE 1029,2 10 60 0,0
18.01.2020 10:00:00 1,4 0,6 - - 4 2 - - ESE 1028,3 9 60 0,0
18.01.2020 09:00:00 -1,4 -1,7 7,9 8,2 4 2 - - E 1027,5 10 6 0,0
18.01.2020 08:00:00 -1,6 -1,9 - - 4 2 - - SE 1027,2 5 0 0,0
18.01.2020 07:00:00 -1,3 -1,7 - - 4 2 - - ESE 1026,6 9 0 0,0
18.01.2020 06:00:00 -1,5 -2,2 - - 4 2 - - SSE 1026,0 10 0 0,0
18.01.2020 05:00:00 -0,6 -1,1 - - 4 2 - - SSE 1025,3 14 0 0,0
18.01.2020 04:00:00 0,7 0,3 - - 2 1 - - E 1024,5 13 0 0,0
18.01.2020 03:00:00 0,8 -0,1 - - 8 4 - - W 1024,2 10 0 0,0
18.01.2020 02:00:00 2,8 2,0 - - 5 3 - - WNW 1023,7 28 0 0,0
18.01.2020 01:00:00 3,7 2,1 - - 13 7 - - W 1022,9 35 0 0,0
18.01.2020 00:00:00 3,3 1,3 - - 5 3 - - SW 1022,2 10 - 0,0
17.01.2020 23:00:00 3,6 1,5 - - 11 6 - - SW 1021,1 45 0 0,0
17.01.2020 22:00:00 4,1 2,0 - - 13 7 - - W 1020,5 10 0 0,0
17.01.2020 21:00:00 3,7 1,7 - - 11 6 - - W 1019,7 10 0 0,0
17.01.2020 20:00:00 4,1 1,5 - - 11 6 - - WSW 1018,8 50 0 0,0
17.01.2020 19:00:00 4,7 1,5 - - 11 6 - - WSW 1018,5 35 0 0,0
17.01.2020 18:00:00 4,8 0,9 - - 9 5 - - WSW 1017,7 10 0 0,0
17.01.2020 17:00:00 4,6 1,1 - - 11 6 - - SSW 1016,9 10 0 0,0
17.01.2020 16:00:00 6,4 1,9 - - 13 7 - - WSW 1016,5 40 30 0,0
17.01.2020 15:00:00 6,8 1,7 - - 22 12 - - WSW 1016,2 10 30 0,0
17.01.2020 14:00:00 6,8 2,9 - - 15 8 - - WSW 1015,5 10 0 0,0
17.01.2020 13:00:00 6,5 3,1 - - 22 12 - - WSW 1015,3 10 6 0,0
17.01.2020 12:00:00 5,9 3,0 - - 28 15 - - W 1014,6 10 0 0,0
17.01.2020 11:00:00 6,8 3,3 - - 24 13 - - WSW 1013,8 18 18 0,0
17.01.2020 10:00:00 6,5 2,9 - - 26 14 52 28 W 1012,2 10 0 0,0
17.01.2020 09:00:00 6,6 3,4 8,4 8,7 31 17 46 25 W 1010,2 10 0 0,0
17.01.2020 08:00:00 7,7 4,4 - - 16 9 - - SW 1008,4 10 0 0,0
17.01.2020 07:00:00 7,1 4,7 - - 13 7 - - SSW 1007,6 10 0 0,0
17.01.2020 06:00:00 7,5 4,4 - - 15 8 - - SSW 1007,4 20 0 0,0
17.01.2020 05:00:00 8,3 5,7 - - 16 9 - - SSW 1006,9 10 0 0,0
17.01.2020 04:00:00 7,9 6,5 - - 15 8 - - S 1006,8 10 0 0,0
17.01.2020 03:00:00 9,8 7,8 - - 22 12 - - S 1007,3 22 0 1,0
17.01.2020 02:00:00 10,5 8,1 - - 22 12 - - SSW 1007,4 10 0 0,0
17.01.2020 01:00:00 10,4 8,4 - - 22 12 - - S 1007,6 10 0 0,0
17.01.2020 00:00:00 10,2 8,2 - - 18 10 - - SSW 1008,1 10 - 0,0
16.01.2020 23:00:00 9,8 7,9 - - 15 8 - - SSW 1008,6 10 0 0,0
16.01.2020 22:00:00 10,0 7,5 - - 18 10 - - SSW 1008,6 10 0 0,0
16.01.2020 21:00:00 10,4 7,6 - - 21 11 - - SSW 1008,1 10 0 0,0
16.01.2020 20:00:00 11,0 7,8 - - 26 14 - - SSW 1007,9 10 0 0,0
16.01.2020 19:00:00 11,9 9,7 - - 26 14 55 30 SSW 1007,1 10 0 0,0
16.01.2020 18:00:00 12,2 10,2 - - 39 21 61 33 S 1006,5 10 0 0,2
16.01.2020 17:00:00 11,6 10,4 - - 41 22 80 43 S 1006,2 4,0 0 0,8
16.01.2020 16:00:00 11,9 10,3 - - 48 26 78 42 S 1005,5 2,0 0 0,0
16.01.2020 15:00:00 11,8 9,2 - - 48 26 74 40 S 1005,4 4,0 0 0,2
16.01.2020 14:00:00 10,9 8,6 - - 42 23 76 41 S 1006,5 10 0 0,0
16.01.2020 13:00:00 10,3 8,3 - - 39 21 78 42 S 1007,9 7 0 1,6
16.01.2020 12:00:00 10,2 8,3 - - 35 19 59 32 SSE 1009,1 6 0 0,8
16.01.2020 11:00:00 10,0 7,9 - - 39 21 65 35 SSE 1010,7 5 0 0,6
16.01.2020 10:00:00 10,3 7,0 - - 41 22 55 30 SSE 1011,5 10 0 0,0
16.01.2020 09:00:00 9,3 6,6 8,2 8,7 29 16 46 25 SSE 1012,8 10 0 0,0
16.01.2020 08:00:00 9,1 6,2 - - 34 18 48 26 SSE 1013,6 10 0 0,0
16.01.2020 07:00:00 9,2 5,8 - - 24 13 - - SSE 1014,4 10 0 0,0
16.01.2020 06:00:00 9,0 5,7 - - 26 14 - - SSE 1015,2 10 0 0,0
16.01.2020 05:00:00 8,8 5,6 - - 16 9 - - SSE 1016,0 10 0 0,0
16.01.2020 04:00:00 8,8 5,8 - - 16 9 - - S 1016,7 10 0 0,0
16.01.2020 03:00:00 9,1 5,9 - - 21 11 - - S 1017,2 10 0 0,0
16.01.2020 02:00:00 8,9 5,7 - - 21 11 - - S 1017,1 10 0 0,0
16.01.2020 01:00:00 8,9 5,8 - - 15 8 - - S 1017,3 10 0 0,0
16.01.2020 00:00:00 8,7 5,3 - - 22 12 - - S 1017,0 10 - 0,0
15.01.2020 23:00:00 7,6 4,6 - - 16 9 - - SSW 1016,7 10 0 0,0
15.01.2020 22:00:00 6,3 3,7 - - 13 7 - - SSW 1016,5 10 0 0,0
15.01.2020 21:00:00 8,2 3,6 - - 22 12 - - SSW 1016,3 10 0 0,0
15.01.2020 20:00:00 7,6 3,5 - - 15 8 - - SSW 1015,9 10 0 0,0
15.01.2020 19:00:00 7,3 3,3 - - 16 9 - - SSW 1015,2 10 0 0,0
15.01.2020 18:00:00 6,7 2,2 - - 15 8 - - SSW 1014,0 10 0 0,0
15.01.2020 17:00:00 6,9 2,1 - - 13 7 - - SW 1013,0 10 0 0,0
15.01.2020 16:00:00 8,7 2,5 - - 18 10 - - SW 1011,6 10 18 0,0
15.01.2020 15:00:00 9,6 2,2 - - 18 10 - - WSW 1010,1 10 30 0,0
15.01.2020 14:00:00 9,7 2,2 - - 22 12 - - SW 1009,1 40 42 0,0
15.01.2020 13:00:00 10,2 3,0 - - 22 12 - - WSW 1008,2 10 60 0,0
15.01.2020 12:00:00 10,3 4,4 - - 21 11 - - WSW 1007,5 10 54 0,0
15.01.2020 11:00:00 8,8 5,6 - - 15 8 - - SW 1006,4 10 6 0,0
15.01.2020 10:00:00 8,1 5,9 - - 11 6 - - SSW 1004,8 20 0 0,0
15.01.2020 09:00:00 7,6 6,0 8,7 8,7 11 6 - - SSW 1003,2 10 0 0,0
15.01.2020 08:00:00 7,5 6,0 - - 11 6 - - SSW 1002,5 10 0 0,0
15.01.2020 07:00:00 7,5 5,7 - - 13 7 - - SSW 1001,3 10 0 0,0
15.01.2020 06:00:00 7,3 6,0 - - 9 5 - - S 1001,0 20 0 0,0
15.01.2020 05:00:00 7,2 6,3 - - 8 4 - - S 1000,3 10 0 0,0
15.01.2020 04:00:00 7,5 6,6 - - 8 4 - - SW 999,5 10 0 0,2
15.01.2020 03:00:00 7,7 7,1 - - 4 2 - - SW 999,5 10 0 0,6
15.01.2020 02:00:00 7,9 7,2 - - 13 7 - - W 998,1 10 0 0,2
15.01.2020 01:00:00 8,7 8,3 - - 16 9 - - W 997,0 4,5 0 2,6
15.01.2020 00:00:00 9,8 9,4 - - 16 9 - - W 995,5 3,0 - 2,2
14.01.2020 23:00:00 11,0 10,4 - - 18 10 - - SSW 994,9 4,0 0 1,0
14.01.2020 22:00:00 10,9 10,2 - - 26 14 48 26 SSW 994,8 10 0 0,4
14.01.2020 21:00:00 11,1 10,1 - - 29 16 48 26 SSW 994,4 10 0 0,2
14.01.2020 20:00:00 11,4 10,1 - - 34 18 - - S 993,7 10 0 0,0
14.01.2020 19:00:00 12,0 10,9 - - 26 14 89 48 SW 993,1 4,5 0 2,0
14.01.2020 18:00:00 12,7 11,8 - - 61 33 91 49 SSW 991,7 2,5 0 1,0
14.01.2020 17:00:00 12,5 11,6 - - 57 31 87 47 SSW 991,3 2,5 0 1,0
14.01.2020 16:00:00 13,0 11,7 - - 52 28 91 49 SSW 991,0 3,5 0 0,2
14.01.2020 15:00:00 12,8 11,8 - - 50 27 85 46 SSW 990,5 3,5 0 0,4
14.01.2020 14:00:00 13,2 12,1 - - 55 30 85 46 SSW 990,3 4,5 0 0,2
14.01.2020 13:00:00 12,8 12,1 - - 57 31 83 45 SSW 990,4 3,7 0 0,6
14.01.2020 12:00:00 11,1 10,2 - - 54 29 78 42 S 991,4 2,5 0 0,8
14.01.2020 11:00:00 10,4 9,3 - - 41 22 63 34 S 993,3 3,0 0 0,4
14.01.2020 10:00:00 9,8 7,5 - - 31 17 59 32 S 994,9 10 0 0,0
14.01.2020 09:00:00 10,1 6,4 8,2 8,7 29 16 - - S 996,3 10 0 0,0
14.01.2020 08:00:00 9,6 6,3 - - 24 13 - - SSW 996,8 10 0 0,0
14.01.2020 07:00:00 7,8 5,3 - - 13 7 - - S 997,4 10 0 0,0
14.01.2020 06:00:00 7,6 4,6 - - 15 8 - - SSW 997,5 10 0 0,0
14.01.2020 05:00:00 7,1 4,0 - - 13 7 - - SSW 997,7 20 0 0,0
14.01.2020 04:00:00 7,9 3,5 - - 18 10 - - SW 997,3 10 0 0,0
14.01.2020 03:00:00 8,4 4,0 - - 21 11 - - SSW 997,1 15 0 0,0
14.01.2020 02:00:00 8,9 4,5 - - 24 13 - - SW 996,8 10 0 0,0
14.01.2020 01:00:00 8,9 5,0 - - 26 14 - - SW 996,6 10 0 0,0
14.01.2020 00:00:00 8,5 4,8 - - 21 11 - - SW 996,7 10 - 0,0
13.01.2020 23:00:00 8,6 6,2 - - 21 11 - - SSW 996,6 10 0 0,0
13.01.2020 22:00:00 7,9 6,1 - - 24 13 - - SSW 996,4 10 0 0,0
13.01.2020 21:00:00 7,5 5,5 - - 24 13 - - SSW 996,2 10 0 0,2
13.01.2020 20:00:00 7,8 5,7 - - 18 10 50 27 SW 996,4 10 0 0,0

tt = Température de l'air
td = dewpoint
tt -20cm = Température de l'air -20cm
tt -100cm = Température de l'air -100cm
ff = Vitesse du vent
fx = gusts
dd = Direction du vent
ppp = reduced air pressure
vv = visibility
sd = Ensoleillement
rr = Quantités de précipitations

stations d'obs. à proximité